History for DAAG

Algiers Airport, Algeria

Daily Weekly Monthly
Daily Summary for Monday, March 25, 2019
  Actual: Average: Record:
Temperature
Mean Temperature: 60 °F / 15 °C - :  
Max Temperature: 73 °F / 22 °C 68 °F / 20 °C - ()
Min Temperature: 47 °F / 8 °C 48 °F / 9 °C - ()
Degree Days
Heating Degree Days: 5    
Growing Degree Days 10 (Base 50)    
Moisture
Dew Point 52 °F / 11 °C    
Average Humidity 79    
Maximum Humidity 100    
Minimum Humidity 40    
Precipitation
Precipitation 0.00 in / 0.0 cm 0.08 in / 2.1 cm - ()
Sea Level Pressure
Sea Level Pressure 30.10 in / 1019.33 hPa   
Wind
Wind Speed 4 mph / 6 km/h ()  
Max Wind Speed 12 mph / 18 km/h   
Max Gust Speed -   
Visibility 6.8 miles / 11.0 kilometers   
Events Rain   

Key: T is trace of precipitation, MM is missing value
Source: Averaged Metar Reports

Graphs

Observations

History Graphs Observations

Obs Go Here...

Features

Weather Apps

WunderRadio

Weather Underground Apps
Check out our wide variety of mobile and setup applications.

Weather Underground Applications

Top of Page

© Copyright 2019
The Weather Company, LLC
Time(CET)TemperatureDew PointHumidity Sea Level Pressure Visibility Wind DirectionWind SpeedGust SpeedPrecipitationEvents Conditions
12:00 AM 53.6 °F / 12.0 °C 51.8 °F / 11.0 °C 94% 30.15 in / 1021 hPa 6.2 miles / 10.0 kilometers WSW 3.5 mph / 5.6 km/h - N/A   Scattered Clouds
12:30 AM 53.6 °F / 12.0 °C 51.8 °F / 11.0 °C 94% 30.15 in / 1021 hPa 6.2 miles / 10.0 kilometers SW 3.5 mph / 5.6 km/h - N/A   Partly Cloudy
1:00 AM 53.6 °F / 12.0 °C 53.6 °F / 12.0 °C 100% 30.15 in / 1021 hPa 6.2 miles / 10.0 kilometers SW 6.9 mph / 11.1 km/h - N/A   Partly Cloudy
1:30 AM 53.6 °F / 12.0 °C 51.8 °F / 11.0 °C 94% 30.15 in / 1021 hPa 6.2 miles / 10.0 kilometers Variable 2.3 mph / 3.7 km/h - N/A   Partly Cloudy
2:00 AM 53.6 °F / 12.0 °C 51.8 °F / 11.0 °C 94% 30.15 in / 1021 hPa 6.2 miles / 10.0 kilometers NW 3.5 mph / 5.6 km/h - N/A   Partly Cloudy
2:30 AM 51.8 °F / 11.0 °C 50.0 °F / 10.0 °C 94% 30.15 in / 1021 hPa 6.2 miles / 10.0 kilometers WNW 3.5 mph / 5.6 km/h - N/A   Partly Cloudy
3:00 AM 51.8 °F / 11.0 °C 50.0 °F / 10.0 °C 94% 30.12 in / 1020 hPa 6.2 miles / 10.0 kilometers South 2.3 mph / 3.7 km/h - N/A   Partly Cloudy
3:30 AM 50.0 °F / 10.0 °C 48.2 °F / 9.0 °C 94% 30.12 in / 1020 hPa 6.2 miles / 10.0 kilometers SSW 2.3 mph / 3.7 km/h - N/A   Partly Cloudy
4:00 AM 49 °F / 10 °C 49 °F / 9 °C 98% 30.14 in / 1020 hPa 6 miles / 10 kilometers SSW 1.2 mph / 1.9 km/h - -   Scattered Clouds
4:00 AM 50.0 °F / 10.0 °C 48.2 °F / 9.0 °C 94% 30.12 in / 1020 hPa 6.2 miles / 10.0 kilometers SSW 1.2 mph / 1.9 km/h - N/A   Partly Cloudy
4:30 AM 48.2 °F / 9.0 °C 46.4 °F / 8.0 °C 93% 30.12 in / 1020 hPa 6.2 miles / 10.0 kilometers South 2.3 mph / 3.7 km/h - N/A   Partly Cloudy
5:00 AM 48.2 °F / 9.0 °C 46.4 °F / 8.0 °C 93% 30.12 in / 1020 hPa 6.2 miles / 10.0 kilometers SSW 3.5 mph / 5.6 km/h - N/A   Partly Cloudy
5:30 AM 48.2 °F / 9.0 °C 46.4 °F / 8.0 °C 93% 30.12 in / 1020 hPa 6.2 miles / 10.0 kilometers Calm Calm - N/A   Partly Cloudy
6:00 AM 50.0 °F / 10.0 °C 48.2 °F / 9.0 °C 94% 30.12 in / 1020 hPa 6.2 miles / 10.0 kilometers SSE 2.3 mph / 3.7 km/h - N/A   Partly Cloudy
6:30 AM 48.2 °F / 9.0 °C 46.4 °F / 8.0 °C 93% 30.12 in / 1020 hPa 6.2 miles / 10.0 kilometers South 3.5 mph / 5.6 km/h - N/A   Partly Cloudy
7:00 AM 50 °F / 10 °C 49 °F / 9 °C 94% 30.15 in / 1021 hPa 6 miles / 10 kilometers SW 2.3 mph / 3.7 km/h - -   Scattered Clouds
7:00 AM 50.0 °F / 10.0 °C 48.2 °F / 9.0 °C 94% 30.12 in / 1020 hPa 6.2 miles / 10.0 kilometers SW 2.3 mph / 3.7 km/h - N/A   Scattered Clouds
7:30 AM 53.6 °F / 12.0 °C 51.8 °F / 11.0 °C 94% 30.15 in / 1021 hPa 6.2 miles / 10.0 kilometers SW 4.6 mph / 7.4 km/h - N/A   Scattered Clouds
8:30 AM 55.4 °F / 13.0 °C 53.6 °F / 12.0 °C 94% 30.15 in / 1021 hPa 6.2 miles / 10.0 kilometers Calm Calm - N/A   Scattered Clouds
9:30 AM 59.0 °F / 15.0 °C 53.6 °F / 12.0 °C 82% 30.15 in / 1021 hPa 6.2 miles / 10.0 kilometers Variable 2.3 mph / 3.7 km/h - N/A   Mostly Cloudy
10:00 AM 60 °F / 16 °C 55 °F / 13 °C 78% 30.16 in / 1021 hPa 6 miles / 10 kilometers WSW 3.5 mph / 5.6 km/h - - Rain Light Rain
10:00 AM 60.8 °F / 16.0 °C 55.4 °F / 13.0 °C 82% 30.15 in / 1021 hPa 6.2 miles / 10.0 kilometers WSW 3.5 mph / 5.6 km/h - N/A Rain Light Rain
10:30 AM 60.8 °F / 16.0 °C 57.2 °F / 14.0 °C 88% 30.15 in / 1021 hPa 6.2 miles / 10.0 kilometers Variable 1.2 mph / 1.9 km/h - N/A Rain Light Rain
11:00 AM 62.6 °F / 17.0 °C 55.4 °F / 13.0 °C 77% 30.15 in / 1021 hPa 6.2 miles / 10.0 kilometers Variable 2.3 mph / 3.7 km/h - N/A   Mostly Cloudy
11:30 AM 66.2 °F / 19.0 °C 55.4 °F / 13.0 °C 68% 30.12 in / 1020 hPa 6.2 miles / 10.0 kilometers Variable 2.3 mph / 3.7 km/h - N/A   Mostly Cloudy
12:30 PM 69.8 °F / 21.0 °C 53.6 °F / 12.0 °C 56% 30.09 in / 1019 hPa 6.2 miles / 10.0 kilometers NE 4.6 mph / 7.4 km/h - N/A   Mostly Cloudy
1:00 PM 72 °F / 22 °C 53 °F / 12 °C 40% 30.10 in / 1019 hPa 12 miles / 20 kilometers NNE 9.2 mph / 14.8 km/h - -   Partly Cloudy
1:00 PM 71.6 °F / 22.0 °C 53.6 °F / 12.0 °C 53% 30.09 in / 1019 hPa 6.2 miles / 10.0 kilometers NNE 9.2 mph / 14.8 km/h - N/A   Mostly Cloudy
1:30 PM 73.4 °F / 23.0 °C 57.2 °F / 14.0 °C 57% 30.06 in / 1018 hPa 6.2 miles / 10.0 kilometers NNE 9.2 mph / 14.8 km/h - N/A   Mostly Cloudy
2:00 PM 71.6 °F / 22.0 °C 59.0 °F / 15.0 °C 64% 30.06 in / 1018 hPa 6.2 miles / 10.0 kilometers NNE 9.2 mph / 14.8 km/h - N/A   Scattered Clouds
2:30 PM 71.6 °F / 22.0 °C 55.4 °F / 13.0 °C 57% 30.06 in / 1018 hPa 6.2 miles / 10.0 kilometers ENE 9.2 mph / 14.8 km/h - N/A   Partly Cloudy
3:00 PM 71.6 °F / 22.0 °C 55.4 °F / 13.0 °C 57% 30.04 in / 1017 hPa 6.2 miles / 10.0 kilometers NE 10.4 mph / 16.7 km/h - N/A   Partly Cloudy
3:30 PM 71.6 °F / 22.0 °C 53.6 °F / 12.0 °C 53% 30.04 in / 1017 hPa 6.2 miles / 10.0 kilometers NNE 9.2 mph / 14.8 km/h - N/A   Partly Cloudy
4:00 PM 70 °F / 21 °C 53 °F / 12 °C 44% 30.04 in / 1017 hPa 19 miles / 30 kilometers NE 10.4 mph / 16.7 km/h - -   Scattered Clouds
4:00 PM 69.8 °F / 21.0 °C 53.6 °F / 12.0 °C 56% 30.04 in / 1017 hPa 6.2 miles / 10.0 kilometers NE 10.4 mph / 16.7 km/h - N/A   Partly Cloudy
4:30 PM 69.8 °F / 21.0 °C 51.8 °F / 11.0 °C 53% 30.04 in / 1017 hPa 6.2 miles / 10.0 kilometers ENE 8.1 mph / 13.0 km/h - N/A   Partly Cloudy
5:30 PM 66.2 °F / 19.0 °C 51.8 °F / 11.0 °C 60% 30.04 in / 1017 hPa 6.2 miles / 10.0 kilometers East 11.5 mph / 18.5 km/h - N/A   Partly Cloudy
6:30 PM 62.6 °F / 17.0 °C 55.4 °F / 13.0 °C 77% 30.04 in / 1017 hPa 6.2 miles / 10.0 kilometers East 10.4 mph / 16.7 km/h - N/A   Partly Cloudy
7:00 PM 61 °F / 16 °C 54 °F / 12 °C 72% 30.04 in / 1017 hPa 12 miles / 20 kilometers East 9.2 mph / 14.8 km/h - -   Scattered Clouds
7:30 PM 59.0 °F / 15.0 °C 55.4 °F / 13.0 °C 88% 30.04 in / 1017 hPa 6.2 miles / 10.0 kilometers East 6.9 mph / 11.1 km/h - N/A   Partly Cloudy
8:30 PM 57.2 °F / 14.0 °C 53.6 °F / 12.0 °C 88% 30.04 in / 1017 hPa 6.2 miles / 10.0 kilometers East 5.8 mph / 9.3 km/h - N/A   Partly Cloudy
9:00 PM 57.2 °F / 14.0 °C 51.8 °F / 11.0 °C 82% 30.04 in / 1017 hPa 6.2 miles / 10.0 kilometers East 3.5 mph / 5.6 km/h - N/A   Partly Cloudy